KX4KY-13 Weather Reports


time (UTC)temp
F
wind
direction
speed
knots
gust
knots
rain 1hr
in
rain 24hr
in
rain mn
in
humidity
%
barometer
mb
20260906043539 74 9 0.9 1.7 0.00 0.00 0.00 81 1015.4
20260906042518 74 23 0.9 1.7 0.00 0.00 0.00 80 1015.5
20260906041520 75 14 0.0 0.9 0.00 0.00 0.00 80 1015.4
20260906040519 75 17 0.0 1.7 0.00 0.00 0.00 80 1015.7
20260906035518 75 9 0.9 1.7 0.00 0.00 0.00 80 1015.7
20260906034519 75 16 0.0 0.9 0.00 0.00 0.00 79 1015.9
20260906033519 75 1 0.0 0.9 0.00 0.00 0.00 79 1016.0
20260906032642 75 12 0.0 0.9 0.00 0.00 0.00 78 1016.0
20260906031520 75 352 0.0 0.9 0.00 0.00 0.00 77 1015.9
20260906030519 75 27 0.0 0.9 0.00 0.00 0.00 79 1016.0
20260906025520 75 15 0.0 1.7 0.00 0.00 0.00 79 1015.8
20260906024519 75 46 0.9 0.9 0.00 0.00 0.00 79 1015.8
20260906023519 75 43 0.0 0.9 0.00 0.00 0.00 79 1015.7
20260906022520 75 340 0.0 1.7 0.00 0.00 0.00 79 1015.6
20260906021520 75 12 0.0 0.9 0.00 0.00 0.00 79 1015.5
20260906020520 75 26 0.0 0.9 0.00 0.00 0.00 79 1015.4
20260906015518 75 16 0.0 0.9 0.00 0.00 0.00 78 1015.4
20260906014518 75 13 0.0 1.7 0.00 0.00 0.00 78 1015.5
20260906013518 75 250 0.0 1.7 0.00 0.00 0.00 78 1015.4
20260906012518 75 344 0.0 1.7 0.00 0.00 0.00 78 1015.5
20260906011538 75 311 0.0 1.7 0.00 0.00 0.00 78 1015.4
20260906010516 75 326 0.0 1.7 0.00 0.00 0.00 78 1015.3
20260906005518 76 284 0.0 1.7 0.00 0.00 0.00 76 1015.3
20260906004516 76 193 0.0 1.7 0.00 0.00 0.00 75 1015.2
20260906003516 76 222 0.0 0.9 0.00 0.00 0.00 75 1015.0
20260906002517 75 163 0.0 1.7 0.00 0.00 0.00 76 1015.0
20260906001638 75 289 0.0 1.7 0.00 0.00 0.00 77 1014.8
20260906000516 75 2 0.0 0.9 0.00 0.00 0.00 77 1014.7
20260905235516 75 306 0.0 0.9 0.00 0.00 0.00 77 1014.6
20260905234521 75 358 0.0 1.7 0.00 0.00 0.00 76 1014.5
20260905233517 76 315 0.0 1.7 0.00 0.00 0.00 75 1014.6
20260905232517 76 174 0.0 1.7 0.00 0.00 0.00 74 1014.5
20260905231517 76 344 0.0 0.9 0.00 0.00 0.00 75 1014.5
20260905230517 76 325 0.0 1.7 0.00 0.00 0.00 75 1014.6
20260905225538 76 181 0.9 2.6 0.00 0.00 0.00 73 1014.6
20260905224518 77 187 0.0 3.5 0.00 0.00 0.00 72 1014.6
20260905223517 77 188 0.9 2.6 0.00 0.00 0.00 71 1014.5
20260905222517 77 196 0.0 2.6 0.00 0.00 0.00 73 1014.5
20260905221518 77 270 0.0 0.9 0.00 0.00 0.00 74 1014.6
20260905220518 77 328 0.0 0.9 0.00 0.00 0.00 73 1014.6
20260905215519 77 115 0.0 0.9 0.00 0.00 0.00 73 1014.6
20260905214518 77 184 0.0 1.7 0.00 0.00 0.00 73 1014.8
20260905213518 76 2 0.0 1.7 0.00 0.00 0.00 72 1014.9
20260905212539 76 9 0.0 1.7 0.00 0.00 0.00 73 1015.0
20260905211520 77 11 0.0 1.7 0.00 0.00 0.00 71 1015.0
20260905210516 77 352 0.0 1.7 0.00 0.00 0.00 70 1015.1
20260905205516 77 4 0.9 1.7 0.00 0.00 0.00 70 1015.2
20260905204516 78 19 0.0 0.9 0.00 0.00 0.00 69 1015.1
20260905203517 79 5 0.0 1.7 0.00 0.00 0.00 69 1015.2
20260905202516 78 21 0.0 0.9 0.00 0.00 0.00 68 1015.2
20260905201516 78 349 0.0 1.7 0.00 0.00 0.00 70 1015.3
20260905200516 77 17 0.9 1.7 0.00 0.00 0.00 72 1015.4
20260905195517 77 345 0.0 1.7 0.00 0.00 0.00 72 1015.5
20260905194516 77 357 0.0 1.7 0.00 0.00 0.00 71 1015.4
20260905193516 76 94 0.9 2.6 0.00 0.00 0.00 67 1015.4
20260905192518 75 153 1.7 5.2 0.00 0.00 0.00 67 1015.7
20260905191517 74 44 0.0 1.7 0.00 0.00 0.00 71 1015.7
20260905190517 74 141 0.9 4.3 0.00 0.00 0.00 70 1016.0
20260905185539 76 145 2.6 8.7 0.00 0.00 0.00 74 1016.6
20260905184518 79 55 2.6 7.8 0.00 0.00 0.00 75 1017.0
20260905183518 81 334 0.0 2.6 0.00 0.00 0.00 77 1016.3
20260905182539 82 7 0.0 0.9 0.00 0.00 0.00 73 1016.3
20260905181518 84 0.0 0.0 0.00 0.00 0.00 71 1016.1
20260905180518 85 124 0.0 1.7 0.00 0.00 0.00 68 1016.1
20260905175519 87 20 0.0 1.7 0.00 0.00 0.00 65 1016.1
20260905174519 88 12 0.0 0.9 0.00 0.00 0.00 61 1016.2
20260905173520 89 12 0.9 1.7 0.00 0.00 0.00 57 1016.2
20260905172536 90 122 0.9 4.3 0.00 0.00 0.00 59 1016.3
20260905171516 89 86 0.0 2.6 0.00 0.00 0.00 60 1016.3
20260905170516 88 20 0.9 2.6 0.00 0.00 0.00 61 1016.4
20260905165516 88 39 0.9 2.6 0.00 0.00 0.00 62 1016.5
20260905164516 88 90 0.9 3.5 0.00 0.00 0.00 62 1016.6
20260905163516 88 101 0.9 3.5 0.00 0.00 0.00 62 1016.9
20260905162516 87 143 0.9 3.5 0.00 0.00 0.00 62 1017.0
20260905161516 88 20 0.9 1.7 0.00 0.00 0.00 64 1017.0
20260905160537 88 64 0.9 3.5 0.00 0.00 0.00 63 1017.0
20260905155518 87 44 0.0 1.7 0.00 0.00 0.00 64 1017.0
20260905154538 87 14 0.9 1.7 0.00 0.00 0.00 64 1017.0
20260905153518 87 17 0.9 3.5 0.00 0.00 0.00 64 1017.1
20260905152517 86 16 0.0 1.7 0.00 0.00 0.00 64 1017.0
20260905151518 86 16 0.9 2.6 0.00 0.00 0.00 64 1017.0
20260905150519 86 61 0.9 1.7 0.00 0.00 0.00 65 1017.0
20260905145518 86 17 0.0 1.7 0.00 0.00 0.00 65 1017.0
20260905144538 85 359 0.9 3.5 0.00 0.00 0.00 65 1017.0
20260905143518 85 9 0.0 1.7 0.00 0.00 0.00 66 1017.0
20260905142518 84 15 0.0 0.9 0.00 0.00 0.00 66 1017.0
20260905141519 84 52 0.0 2.6 0.00 0.00 0.00 67 1017.1
20260905140520 83 30 0.9 1.7 0.00 0.00 0.00 68 1017.1
20260905135518 83 19 0.9 1.7 0.00 0.00 0.00 68 1017.1
20260905134516 82 14 0.9 1.7 0.00 0.00 0.00 68 1017.2
20260905133516 81 15 0.9 1.7 0.00 0.00 0.00 69 1017.2
20260905132516 81 29 0.9 2.6 0.00 0.00 0.00 70 1017.3
20260905131536 80 34 0.9 1.7 0.00 0.00 0.00 72 1017.3
20260905130518 80 27 0.9 1.7 0.00 0.00 0.00 71 1017.3
20260905125516 80 10 0.0 1.7 0.00 0.00 0.00 72 1017.3
20260905124536 79 10 0.0 1.7 0.00 0.00 0.00 73 1017.2
20260905123517 79 18 0.0 1.7 0.00 0.00 0.00 73 1017.1
20260905122517 78 360 0.9 1.7 0.00 0.00 0.00 75 1017.1
20260905121517 78 10 0.9 1.7 0.00 0.00 0.00 76 1017.1
20260905120517 77 2 0.9 1.7 0.00 0.00 0.00 76 1017.2
20260905115517 77 13 0.9 1.7 0.00 0.00 0.00 75 1017.0
20260905114517 77 354 0.9 1.7 0.00 0.00 0.00 76 1016.9
20260905113519 76 3 0.0 1.7 0.00 0.00 0.00 77 1016.9
20260905112517 75 8 0.0 0.9 0.00 0.00 0.00 78 1016.7
20260905111537 74 9 0.0 1.7 0.00 0.00 0.00 80 1016.6
20260905110519 74 344 0.0 0.9 0.00 0.00 0.00 81 1016.4
20260905105519 74 357 0.0 0.9 0.00 0.00 0.00 80 1016.3
20260905104538 74 357 0.0 0.9 0.00 0.00 0.00 80 1016.2
20260905103518 75 20 0.0 1.7 0.00 0.00 0.00 80 1016.2
20260905102518 74 344 0.9 2.6 0.00 0.00 0.00 80 1016.2
20260905101518 75 354 0.9 1.7 0.00 0.00 0.00 80 1016.1
20260905100539 75 322 0.0 0.9 0.00 0.00 0.00 80 1016.1
20260905095519 75 19 0.0 0.9 0.00 0.00 0.00 80 1016.0
20260905094520 75 15 0.9 1.7 0.00 0.00 0.00 80 1016.1
20260905093519 74 345 0.9 0.9 0.00 0.00 0.00 80 1016.0
20260905092541 74 357 0.9 1.7 0.00 0.00 0.00 81 1016.0
20260905091519 75 12 0.0 1.7 0.00 0.00 0.00 81 1016.0
20260905090520 75 353 0.9 1.7 0.00 0.00 0.00 81 1016.1
20260905085520 75 348 0.0 0.9 0.00 0.00 0.00 81 1016.1
20260905084519 74 7 0.0 0.9 0.00 0.00 0.00 81 1016.2
20260905083521 74 4 0.0 0.9 0.00 0.00 0.00 81 1016.4
20260905082520 74 347 0.0 0.9 0.00 0.00 0.00 81 1016.4
20260905081521 74 345 0.0 1.7 0.00 0.00 0.00 81 1016.5
20260905080520 74 0.0 0.0 0.00 0.00 0.00 82 1016.6
20260905075520 74 82 0.0 0.9 0.00 0.00 0.00 82 1016.7
20260905074520 74 0.0 0.0 0.00 0.00 0.00 81 1016.7
20260905073600 75 0.0 0.0 0.00 0.00 0.00 81 1016.8
20260905072521 75 0.0 0.0 0.00 0.00 0.00 81 1016.9
20260905071520 75 289 0.0 0.9 0.00 0.00 0.00 80 1016.9
20260905070522 75 0.0 0.0 0.00 0.00 0.00 80 1016.9
20260905065521 74 0.0 0.0 0.00 0.00 0.00 81 1017.0
20260905064521 74 21 0.0 1.7 0.00 0.00 0.00 80 1017.1
20260905063521 74 320 0.0 1.7 0.00 0.00 0.00 80 1017.2
20260905062521 75 31 0.0 0.9 0.00 0.00 0.00 79 1017.3
20260905061522 75 21 0.0 0.9 0.00 0.00 0.00 78 1017.4
20260905060522 75 10 0.9 2.6 0.00 0.00 0.00 79 1017.3
20260905055522 75 357 0.0 0.9 0.00 0.00 0.00 80 1017.5
20260905054522 75 346 0.0 1.7 0.00 0.00 0.00 79 1017.6
20260905053522 75 346 0.9 1.7 0.00 0.00 0.00 80 1017.7
20260905052522 75 335 0.0 0.9 0.00 0.00 0.00 80 1017.8
20260905051524 75 3 0.0 0.9 0.00 0.00 0.00 80 1017.8
20260905050543 75 319 0.0 0.9 0.00 0.00 0.00 81 1017.7
20260905045522 75 315 0.0 0.9 0.00 0.00 0.00 81 1017.8
20260905044545 75 340 0.0 0.9 0.00 0.00 0.00 80 1017.7